Location: Wanzleben
(52.0609°N, 11.4408°E)
Time: 03:28:15
(UTC+00:00)

CZ-4 R/B - Pass Details

Date: 18 September 2020
Orbit: 530 x 600 km, 97.7° (Epoch: 22 October)

Event Time Altitude Azimuth Distance (km) Brightness Sun altitude
Rises 18:45:41 0° 204° (SSW) 2,839 5.0 -13.5°
Reaches altitude 10° 18:48:21 10° 222° (SW) 1,942 4.4 -13.9°
Maximum altitude 18:51:27 20° 269° (W) 1,417 4.3 -14.3°
Drops below altitude 10° 18:54:34 10° 317° (NW) 1,943 5.2 -14.8°
Sets 18:57:15 0° 334° (NNW) 2,842 5.8 -15.2°
